Location: Franzen
(48.6167°N, 15.3833°E)
Time: 02:08:31
(UTC+00:00)

Helios 1A Rocket - Visible Passes

Search period start: 03 August 2021 00:00
Search period end: 13 August 2021 00:00
Orbit: 563 x 584 km, 98.3° (Epoch: 02 August)

Date Brightness Start Highest point End Pass type
(mag) Time Alt. Az. Time Alt. Az. Time Alt. Az.
03 Aug 4.0 19:11:24 10° S 19:15:18 45° W 19:19:16 10° NNW visible
04 Aug 4.1 19:14:28 10° S 19:18:19 42° W 19:22:14 10° NNW visible
05 Aug 4.3 19:17:30 10° S 19:21:20 39° W 19:25:13 10° NNW visible
06 Aug 4.4 19:20:34 10° SSW 19:24:21 37° W 19:28:12 10° NNW visible
07 Aug 4.5 19:23:37 10° SSW 19:27:22 35° W 19:31:10 10° NNW visible
08 Aug 4.6 19:26:41 10° SSW 19:30:23 33° W 19:34:08 10° NNW visible
09 Aug 4.7 19:29:45 10° SSW 19:33:24 31° W 19:37:05 10° NNW visible
10 Aug 4.8 19:32:49 10° SSW 19:36:25 29° W 19:40:02 10° NW visible
11 Aug 4.9 19:35:54 10° SSW 19:39:25 27° W 19:42:59 10° NW visible
12 Aug 5.0 19:38:59 10° SSW 19:42:26 26° W 19:45:55 10° NW visible
